User: anonymous   Login
Location: Unspecified
(0.0000°N, 0.0000°E)
Time: 12:56:26
(UTC+00:00)
Language:

USA 169 - Orbit

View from above orbital plane
View from above orbital plane
View from above satellite
View from above satellite

Ground track
Ground track

The orbit is defined by the following mean orbital elements,

1 27711U          26145.97030169 +.00000000 +00000-0 +00000-0 0 00004
2 27711  12.3176  30.0262 0101726   8.0992 346.8772  1.00272991    06
Epoch (UTC): 25 May 2026 23:17:14
Eccentricity: 0.0101726
inclination: 12.3176°
perigee height: 35357 km
apogee height: 36215 km
right ascension of ascending node: 30.0262°
argument of perigee: 8.0992°
revolutions per day: 1.00272991
mean anomaly at epoch: 346.8772°

The dashed part of the orbit path shows where the satellite is in the earth's shadow,  

DLR